Location: Ashtead
(51.3000°N, 0.3000°W)
Time: 12:10:11
(UTC+00:00)

NOSS 3-4 (A) - Pass Details

Date: 26 September 2023
Orbit: 813 x 1400 km, 63.4° (Epoch: 23 November)

Event Time Altitude Azimuth Distance (km) Brightness Sun altitude
Exits shadow 02:10:53 61° 11° (N) 1,022 3.7 -32.0°
Drops below altitude 10° 02:16:16 10° 44° (NE) 2,736 6.7 -31.4°
Sets 02:19:02 0° 46° (NE) 3,775 7.7 -31.1°
